Imperial, NE

5:53 PM MDT on May 26, 2017 (GMT -0600)
Imperial Municipal

Weather History for KIML - October, 2012

Change the Weather History Date:

Sunday, October 28, 2012

  Actual Average Record
Temperature  
Mean Temperature 45 °F 46 °F  
Max Temperature 65 °F 60 °F 86 °F (1943)
Min Temperature 25 °F 32 °F 5 °F (1925)
Degree Days  
Heating Degree Days 20 19  
Month to date heating degree days 450 385  
Cooling Degree Days 0 0  
Month to date cooling degree days 4 3  
Year to date cooling degree days 1382 960  
Moisture  
Dew Point 29 °F    
Average Humidity 57    
Maximum Humidity 92    
Minimum Humidity 22    
Precipitation  
Precipitation 0.00 in 0.03 in 0.95 in (1905)
Sea Level Pressure  
Sea Level Pressure 30.11 in    
Wind  
Wind Speed 5 mph (South)    
Max Wind Speed 17 mph    
Max Gust Speed 23 mph    
Visibility 10 miles    
Events      
T = Trace of Precipitation, MM = Missing Value Source: NWS Daily Summary

Daily Weather History Graph

Daily Weather History Graph

Search for Another Location

Airport or City:

Trip Planner

Search our weather history database for the weather conditions in past years. The results will help you decide how hot, cold, wet, or windy it might be!

Date:

Astronomy

Oct. 28, 2012 Rise Set
Actual Time 7:12 AM MDT 5:47 PM MDT
Civil Twilight 6:44 AM MDT 6:15 PM MDT
Nautical Twilight 6:12 AM MDT 6:47 PM MDT
Astronomical Twilight 5:40 AM MDT 7:19 PM MDT
Moon 5:06 PM MDT (10/28) 6:07 AM MDT (10/28)
Length of Visible Light 11h 31m
Length of Day
10h 34m
Waxing Gibbous, 99% of the Moon is Illuminated
Oct 28
Waxing Gibbous
Oct 29
Full
Nov 6
Last Quarter
Nov 13
New
Nov 20
First Quarter

Hourly Weather History & Observations

Time (MDT) Temp. Windchill Dew Point Humidity Pressure Visibility Wind Dir Wind Speed Gust Speed Precip Events Conditions
12:53 AM 28.0 °F - 21.9 °F 78% 30.23 in 10.0 mi Calm Calm - N/A   Clear
1:53 AM 28.0 °F - 23.0 °F 81% 30.20 in 10.0 mi Calm Calm - N/A   Partly Cloudy
2:53 AM 28.9 °F - 26.1 °F 89% 30.19 in 10.0 mi Calm Calm - N/A   Overcast
3:53 AM 33.1 °F - 28.0 °F 82% 30.17 in 10.0 mi Calm Calm - N/A   Overcast
4:53 AM 34.0 °F 29.8 °F 28.0 °F 79% 30.17 in 10.0 mi SW 4.6 mph - N/A   Overcast
5:53 AM 33.1 °F - 28.0 °F 82% 30.19 in 10.0 mi Calm Calm - N/A   Overcast
6:53 AM 33.1 °F 27.7 °F 28.9 °F 85% 30.19 in 10.0 mi South 5.8 mph - N/A   Overcast
7:53 AM 34.0 °F 31.0 °F 30.0 °F 85% 30.20 in 10.0 mi SSE 3.5 mph - N/A   Overcast
8:53 AM 36.0 °F 31.1 °F 32.0 °F 86% 30.20 in 10.0 mi SSE 5.8 mph - N/A   Overcast
9:53 AM 39.9 °F 36.7 °F 33.1 °F 77% 30.19 in 10.0 mi South 4.6 mph - N/A   Overcast
10:53 AM 46.4 °F 42.9 °F 33.8 °F 62% 30.10 in 10.0 mi South 6.9 mph - N/A   Overcast
11:53 AM 51.1 °F - 33.1 °F 50% 30.12 in 10.0 mi South 10.4 mph - N/A   Overcast
12:53 PM 57.9 °F - 25.0 °F 28% 30.09 in 10.0 mi SSW 12.7 mph - N/A   Overcast
1:53 PM 62.1 °F - 26.1 °F 25% 30.04 in 10.0 mi SW 10.4 mph - N/A   Overcast
2:53 PM 64.0 °F - 25.0 °F 23% 30.01 in 10.0 mi SW 6.9 mph - N/A   Partly Cloudy
3:53 PM 60.1 °F - 30.9 °F 33% 30.00 in 10.0 mi SE 9.2 mph - N/A   Clear
4:53 PM 62.1 °F - 28.9 °F 29% 30.00 in 10.0 mi ESE 4.6 mph - N/A   Partly Cloudy
5:53 PM 54.0 °F - 30.0 °F 40% 30.02 in 10.0 mi Calm Calm - N/A   Scattered Clouds
6:53 PM 51.1 °F - 33.1 °F 50% 30.05 in 10.0 mi SE 5.8 mph - N/A   Overcast
7:53 PM 48.0 °F - 30.9 °F 52% 30.05 in 10.0 mi SE 9.2 mph - N/A   Overcast
8:53 PM 44.1 °F 40.8 °F 30.9 °F 60% 30.06 in 10.0 mi SSE 5.8 mph - N/A   Mostly Cloudy
9:53 PM 43.0 °F 40.3 °F 30.9 °F 62% 30.07 in 10.0 mi South 4.6 mph - N/A   Clear
10:53 PM 41.0 °F - 30.0 °F 65% 30.07 in 10.0 mi Calm Calm - N/A   Clear
11:53 PM 39.0 °F 35.7 °F 30.9 °F 73% 30.06 in 10.0 mi West 4.6 mph - N/A   Clear